SCP
0 0 0 0 0 0 1 1 1 2 3 3 3 4 4 4 3 3 3 3 4 4 4 4 3 3 4 6 7 7 6 6 6 7 7 6 6 5 5 4 3 3 2 2
1 0 0 0 0 0 1 1 1 2 3 3 3 4 4 4 3 3 3 4 4 4 4 4 3 3 4 7 7 7 6 6 7 7 6 6 5 5 4 4 3 3 3 2
1 1 1 0 0 0 1 1 2 2 3 2 2 3 3 3 4 4 4 4 4 4 4 5 4 3 4 6 8 8 8 8 7 7 7 6 5 5 5 4 4 4 3 3
1 1 1 0 0 0 1 1 2 2 2 2 2 2 2 2 3 4 4 3 3 3 3 4 4 3 3 4 6 8 8 8 8 8 8 7 6 6 6 6 6 5 5 4
0 0 0 1 1 0 1 1 2 2 1 1 1 1 2 2 2 2 2 2 2 2 2 3 3 2 2 2 3 5 6 7 8 9 9 9 8 8 8 8 7 6 6 6
0 0 1 1 1 1 1 1 1 1 1 1 1 1 2 1 1 1 1 2 2 2 2 2 2 2 2 2 2 3 4 6 7 8 9 9 10 10 10 10 8 6 6 6
0 1 1 1 1 1 1 2 1 1 1 1 2 2 2 1 1 1 1 1 2 2 3 3 3 3 3 2 2 2 4 6 7 8 8 8 10 11 12 11 9 7 6 6
1 1 1 2 2 2 2 2 1 1 1 2 2 3 2 1 1 1 1 1 1 2 2 2 3 3 3 3 3 3 3 6 8 9 9 8 9 11 11 11 9 8 7 7
1 1 2 2 2 2 2 2 1 1 1 2 2 2 2 1 1 1 1 1 1 1 1 2 2 2 2 3 3 3 3 5 8 10 10 10 10 10 11 10 9 8 7 7
1 1 1 1 2 2 2 1 1 1 1 2 2 2 1 1 2 2 2 1 1 1 1 1 1 1 2 2 3 3 4 5 7 10 11 11 10 10 9 10 9 8 7 6
1 1 1 1 1 1 1 1 1 1 1 1 1 1 1 2 2 3 2 2 2 2 1 1 1 1 2 3 3 3 4 5 7 9 11 11 10 8 7 7 7 6 5 4
1 1 1 1 1 1 1 1 1 1 1 1 0 0 1 2 2 3 3 2 2 2 2 2 2 2 2 3 3 4 4 5 7 9 10 10 9 7 5 4 3 2 2 2
1 1 1 1 1 1 1 1 1 1 0 0 0 1 1 1 2 2 3 3 2 2 2 2 2 3 3 3 4 4 5 6 6 8 10 9 8 7 4 2 1 1 1 1
1 1 1 1 1 1 1 1 0 0 0 0 1 1 1 1 2 2 2 3 2 2 2 2 3 3 4 4 4 5 5 6 6 8 9 8 7 7 6 4 2 1 1 0
1 1 0 0 0 0 0 0 0 0 0 0 1 1 1 1 1 2 2 3 2 2 2 3 3 3 3 3 4 4 5 6 6 7 8 8 7 7 6 4 3 2 1 1
0 0 0 0 0 0 0 0 0 0 0 0 0 1 1 1 1 2 2 2 2 3 3 4 4 3 2 2 3 4 5 5 5 6 7 7 7 7 6 5 3 2 2 1
0 0 0 0 1 1 1 1 1 1 1 1 1 1 1 1 1 2 2 2 2 3 4 5 4 3 2 2 2 3 4 4 5 6 7 7 7 7 7 5 3 2 2 1
0 0 0 0 1 1 1 1 1 1 1 1 1 1 1 1 1 2 2 2 2 4 5 5 4 3 2 2 2 2 3 4 5 6 6 6 6 6 6 5 3 2 1 1
0 0 0 0 0 1 1 1 1 1 1 1 1 1 1 1 1 1 2 2 2 3 5 5 4 3 3 2 2 2 3 4 5 5 5 5 5 5 5 4 2 2 1 1
1 0 0 0 0 0 1 1 1 1 1 1 1 1 2 2 2 2 2 2 2 3 5 5 4 4 3 2 1 1 2 3 4 4 4 4 4 4 3 2 1 2 1 1
1 1 1 1 1 1 1 1 1 1 1 1 1 1 2 2 3 2 2 2 2 3 4 4 4 3 2 2 1 1 1 2 3 3 4 4 4 3 2 1 1 2 1 1
1 1 1 1 1 1 1 1 1 1 1 1 1 1 1 2 2 2 2 2 2 3 3 3 2 2 1 1 1 1 1 2 2 3 4 4 3 3 2 1 1 1 1 1
1 1 1 1 1 1 1 1 1 1 1 1 1 1 1 1 1 2 2 1 1 1 1 1 1 0 0 1 1 1 1 1 2 3 3 3 2 2 1 1 1 1 1 2
2 1 1 1 1 1 2 1 1 1 1 1 1 1 1 1 1 1 1 1 1 1 1 0 0 0 0 0 1 1 1 2 2 3 3 2 2 1 1 1 1 1 2 2
2 2 2 1 1 2 2 1 1 1 1 1 1 1 1 1 1 1 1 1 0 0 1 1 0 0 0 0 1 1 1 2 2 2 2 2 1 2 2 2 1 1 1 1
1 1 1 1 1 1 1 1 1 1 1 1 1 1 1 1 1 1 1 0 0 0 1 1 1 1 1 1 1 1 1 1 1 1 1 1 1 2 2 2 1 1 1 1
1 1 1 1 1 1 1 1 1 1 1 1 1 1 0 1 1 0 0 0 0 0 1 2 1 1 1 1 1 1 1 1 1 1 1 1 1 2 2 2 1 1 1 1
Wind_Speed
11 10 9 9 10 9 9 8 8 3 1 1 4 5 5 4 4 3 3 3 3 3 3 3 2 2 2 2 2 2 1 0 0 0 0 1 1 1 1 1 2 1 1 2
11 11 12 10 10 9 8 7 4 1 1 2 5 4 4 3 2 2 2 2 2 3 3 3 2 2 2 2 2 2 2 2 1 0 1 1 1 1 1 1 1 1 2 2
10 10 10 9 8 7 4 4 4 2 1 2 3 3 3 2 2 3 3 3 4 3 3 2 2 3 3 2 1 1 1 2 1 1 1 1 2 2 2 2 2 2 2 2
9 9 11 4 3 2 2 4 4 3 3 3 2 3 4 4 4 3 4 4 3 3 3 2 2 3 3 3 2 2 2 2 2 2 2 1 2 2 2 2 3 3 3 3
7 9 9 3 2 2 1 1 2 3 3 2 3 3 4 5 4 3 3 3 3 3 2 2 2 2 3 3 2 2 2 2 2 2 2 2 2 2 2 3 3 3 3 3
7 9 7 3 3 3 1 1 3 3 3 2 1 1 2 4 3 3 3 3 3 3 2 2 2 2 3 3 3 3 3 3 3 3 3 3 3 3 3 3 4 4 4 3
9 9 3 3 2 1 2 2 4 4 2 1 2 2 3 3 3 3 3 2 3 3 2 2 2 2 3 3 3 4 4 3 3 3 3 3 3 3 3 4 4 4 4 4
7 8 3 3 1 2 4 5 4 3 3 3 3 3 2 2 2 1 2 2 2 2 2 2 2 2 3 3 4 4 4 4 4 3 5 4 3 3 4 4 5 4 4 4
2 0 4 5 5 4 3 3 3 2 3 2 1 0 0 1 1 1 1 2 2 2 2 2 2 2 3 3 4 4 4 4 4 4 3 3 4 4 3 4 4 4 3 3
1 2 2 3 3 3 3 2 1 1 1 0 1 0 0 0 0 1 2 2 2 3 3 2 2 2 2 3 4 4 5 5 4 4 4 3 3 3 3 3 4 3 3 3
2 2 1 0 2 2 1 1 0 0 0 1 1 1 0 0 1 1 2 2 2 3 3 3 3 3 3 3 4 5 5 5 5 5 4 3 3 3 3 3 3 3 3 3
3 2 2 1 1 1 1 1 1 1 1 1 1 1 1 1 1 1 2 2 2 3 4 3 3 4 3 3 4 5 4 5 4 4 4 3 3 3 2 3 3 4 4 3
3 3 2 3 2 1 1 2 2 1 1 2 2 2 2 1 2 2 2 2 3 4 4 4 3 3 3 3 4 4 4 5 5 4 4 3 3 3 3 2 3 4 4 4
2 2 2 3 2 2 2 2 2 1 1 1 1 2 2 2 2 2 2 3 3 4 4 3 3 3 3 3 4 4 5 5 5 4 4 3 3 4 3 3 2 2 3 5
2 3 4 3 3 3 3 3 3 2 2 2 2 2 3 3 3 3 3 3 3 4 4 3 3 3 3 4 4 5 5 4 3 4 4 4 3 3 3 3 2 2 1 2
4 4 4 4 4 4 4 3 3 4 3 3 3 3 3 3 3 2 2 3 3 3 3 3 3 3 3 4 4 4 3 4 4 4 4 4 3 3 3 3 3 2 2 1
4 4 4 4 4 5 5 4 4 4 4 4 3 3 3 3 3 2 3 3 3 2 1 2 3 4 4 4 5 4 4 3 4 5 4 4 3 3 3 3 3 2 2 1
4 4 4 5 5 4 4 4 4 4 4 4 4 4 4 3 3 3 3 3 3 3 2 2 2 4 4 4 4 4 4 3 3 4 3 3 3 3 3 2 2 3 2 0
3 4 4 4 4 4 4 4 4 4 3 3 3 4 3 3 3 3 3 3 4 3 2 2 2 4 4 3 4 4 5 5 4 3 3 3 3 3 3 3 3 3 1 1
2 2 2 2 3 3 3 3 3 3 3 2 3 3 3 3 3 3 3 3 2 2 2 1 3 3 4 3 5 5 5 4 4 4 3 3 3 3 3 3 2 1 1 1
2 2 2 2 2 2 2 2 2 2 2 2 3 3 2 2 3 4 4 4 1 1 2 2 2 3 3 4 5 5 4 4 4 4 3 2 3 3 3 3 2 1 0 1
2 2 2 3 3 2 2 2 2 2 2 2 2 3 3 3 4 4 3 2 1 0 2 2 2 1 3 5 5 5 4 4 3 3 2 2 2 3 2 2 1 1 1 0
2 2 2 2 2 3 3 2 3 3 2 2 2 3 4 3 4 4 3 2 1 1 2 2 1 2 4 4 4 5 4 3 3 2 2 2 2 2 2 1 1 1 0 1
2 2 2 2 3 2 3 3 4 3 3 3 3 3 3 3 3 3 2 1 2 2 3 1 3 4 4 4 4 4 3 3 2 2 2 2 2 2 1 1 1 1 0 1
3 3 3 3 3 3 3 3 4 4 4 3 4 3 3 3 3 2 2 1 1 3 4 3 6 6 5 4 4 3 2 2 3 3 2 1 1 2 2 1 1 1 1 0
3 3 2 3 3 3 3 3 3 2 3 3 2 2 3 2 2 2 2 3 4 4 5 3 3 4 4 3 3 2 2 2 2 2 2 1 1 1 1 2 2 1 1 1
3 2 2 3 4 4 3 3 2 2 2 3 2 2 3 3 2 3 3 3 3 3 3 3 2 2 2 2 2 2 2 2 2 2 2 2 2 1 1 2 1 1 1 1
Wind_Direction
266 273 272 271 267 268 266 270 280 299 349 108 98 89 85 83 78 92 99 94 84 73 61 49 41 29 13 21 22 8 12 35 124 183 293 286 270 245 229 248 254 255 273 271
273 271 275 276 275 266 269 282 283 270 341 63 85 75 67 77 77 66 79 68 71 71 55 39 24 1 358 13 14 5 350 329 339 252 232 277 275 256 238 243 256 243 251 263
272 273 271 264 274 269 274 301 295 292 100 104 71 53 35 32 63 49 40 42 41 44 51 35 9 358 348 347 356 341 318 306 300 276 263 256 269 264 251 250 259 259 259 260
269 269 259 276 343 6 35 25 25 42 76 93 71 85 62 52 49 53 40 30 20 21 25 17 6 355 346 340 346 329 319 315 302 284 273 269 263 260 255 249 251 251 248 249
265 265 259 272 342 318 269 23 39 61 48 69 95 111 81 64 48 60 52 48 27 4 5 10 355 352 333 324 330 321 304 307 320 317 307 293 278 275 265 259 257 252 247 243
260 267 273 328 359 359 292 168 52 78 72 49 196 253 70 80 75 52 46 38 20 1 355 358 355 346 325 321 322 315 313 317 317 310 301 292 284 276 267 257 256 260 247 238
251 259 267 326 359 322 270 69 62 73 78 48 21 43 90 102 80 57 49 27 0 353 355 1 356 340 318 314 314 315 312 307 309 307 293 282 278 275 272 264 258 260 261 247
252 256 264 5 61 33 76 89 73 64 63 62 71 87 93 93 86 62 25 5 350 351 348 353 343 324 314 316 318 311 302 299 298 295 289 286 281 277 273 270 264 255 260 257
316 64 80 71 79 84 100 96 88 75 65 65 63 115 110 104 81 13 351 349 340 330 329 341 323 313 313 318 317 308 305 301 294 289 283 284 279 270 270 267 265 267 269 271
237 168 131 112 100 83 69 78 85 99 87 316 305 316 59 47 16 345 335 339 331 318 316 328 329 315 314 311 313 306 298 293 287 282 278 277 273 271 271 271 268 272 278 282
247 232 260 167 41 44 68 72 127 102 310 331 316 309 339 359 352 330 320 315 310 312 317 315 313 309 306 304 303 298 291 289 289 280 276 271 262 271 265 261 254 262 282 289
282 282 279 276 270 283 316 296 257 223 267 283 266 277 297 312 312 303 296 296 302 305 306 306 306 307 311 310 301 296 291 293 290 287 282 269 258 261 263 243 229 230 241 254
318 315 312 300 287 297 282 275 279 265 246 262 268 273 289 287 284 289 287 294 295 296 297 302 301 305 315 312 298 295 297 294 285 281 280 272 268 263 262 257 249 247 244 235
342 331 287 273 276 281 273 270 280 302 286 262 268 279 282 280 276 278 286 291 293 297 296 301 309 314 316 310 302 296 292 288 287 283 280 269 267 270 263 253 251 251 241 232
285 278 275 262 247 244 251 254 253 247 251 243 233 257 265 269 268 273 286 291 292 294 300 307 308 308 308 307 302 297 295 295 296 293 288 283 277 276 277 274 261 252 254 220
275 261 261 253 243 243 241 242 251 251 248 247 241 250 265 282 289 290 295 293 294 300 305 308 308 311 313 306 296 285 284 290 293 292 287 284 279 281 283 280 277 270 266 249
266 253 248 246 242 243 241 242 247 249 254 258 254 260 270 279 282 290 300 297 297 291 298 318 320 317 314 315 303 289 285 274 263 274 283 289 292 286 280 275 281 282 285 205
259 256 249 248 252 250 251 253 250 246 249 255 255 251 258 266 278 285 295 299 299 295 305 322 327 311 305 305 302 293 284 275 266 271 282 287 294 288 282 282 285 292 299 276
262 253 249 249 256 260 263 265 264 258 250 251 263 263 262 267 271 278 282 287 285 286 307 328 288 287 294 305 299 282 284 285 287 287 282 277 271 278 283 281 282 276 261 237
288 267 265 265 270 271 270 272 271 262 248 235 250 270 275 279 282 278 277 273 277 290 294 289 271 280 287 295 284 278 280 278 282 287 288 274 274 282 286 290 293 309 343 320
335 328 305 294 296 294 288 290 287 276 267 258 254 266 274 282 288 281 271 268 258 307 288 241 254 278 292 292 273 272 272 270 273 276 279 282 282 283 287 290 294 315 325 298
351 349 342 341 334 326 320 312 294 283 288 288 280 281 285 277 274 277 267 276 271 338 298 285 276 322 316 292 279 280 276 271 274 278 280 279 282 285 286 305 324 316 304 289
351 352 353 347 330 322 327 319 300 286 267 262 278 282 278 281 279 282 277 256 243 231 277 298 279 257 286 285 289 286 284 283 281 277 276 271 264 267 282 300 316 329 350 324
344 335 312 302 303 301 301 298 293 282 263 253 254 261 269 275 277 277 289 200 192 225 275 241 207 236 255 269 278 282 289 297 301 306 304 314 329 325 325 327 323 318 281 282
313 309 312 304 293 287 275 267 260 257 261 262 255 248 250 257 275 298 304 288 191 237 264 236 217 224 247 267 272 291 310 317 316 317 306 307 314 321 321 317 316 317 325 299
305 300 309 298 302 298 281 273 268 261 270 272 263 263 273 275 274 266 264 273 271 259 264 255 228 226 244 256 275 302 305 301 289 284 311 328 328 327 327 328 335 339 355 360
287 283 278 281 287 286 284 287 295 301 295 292 297 280 282 294 298 296 292 283 274 269 277 280 267 244 252 267 286 297 309 328 330 329 336 340 340 348 348 343 343 342 350 20